Theta_e
321 323 324 322 324 325 328 326 324 326 326 329 329 330 333 331 334 335 336 337 336 333 334 337 337 337 331 322 322 331 335 335 335 333 332 330 329 328 327 327 326 325 326 327 327 328 327 328 327
321 322 324 321 324 325 322 322 325 323 322 320 334 336 337 336 337 336 337 338 336 333 334 336 337 336 331 319 327 331 334 335 335 333 331 329 328 327 326 326 326 326 326 326 328 327 326 326 324
320 319 322 322 322 324 321 319 319 321 319 326 331 336 336 338 336 335 338 338 336 333 334 335 336 335 330 319 329 332 335 337 334 333 331 329 328 327 327 326 324 326 326 325 326 326 326 324 322
320 318 316 326 325 324 321 319 319 321 321 324 332 336 335 336 336 336 337 338 336 334 334 334 335 334 328 324 332 337 338 336 334 333 332 330 327 325 325 326 325 325 326 325 325 326 325 322 320
319 317 323 325 325 324 322 321 320 321 320 321 327 334 336 336 337 337 337 337 336 335 333 334 334 333 329 325 337 338 337 335 334 333 331 329 327 325 325 326 325 325 325 325 325 323 319 319 318
319 317 325 325 323 321 319 318 319 320 320 320 330 333 334 335 336 336 337 336 336 334 333 333 334 332 331 319 336 337 337 334 333 333 331 328 326 325 325 326 324 325 326 325 324 318 313 313 313
318 322 324 323 323 324 320 314 320 319 320 322 327 336 333 334 336 336 337 336 336 335 333 333 333 333 331 324 331 336 336 334 333 332 332 328 326 325 325 325 326 326 325 324 323 315 312 311 309
316 318 323 322 324 324 310 312 317 319 321 322 333 338 329 332 335 336 337 336 335 334 332 332 332 333 332 330 321 332 336 336 333 332 331 329 325 325 325 324 324 325 324 324 320 312 310 309 309
316 322 324 323 320 318 307 309 313 315 318 318 325 333 332 331 334 335 334 335 334 334 332 330 332 333 332 331 326 327 329 333 334 333 330 327 326 325 324 323 323 322 323 322 315 310 309 308 308
315 320 315 308 306 308 304 308 308 312 315 319 319 318 320 326 332 332 333 333 333 332 333 331 331 332 332 331 326 330 335 334 335 332 329 327 326 325 324 322 321 320 318 314 312 310 310 309 309
306 311 301 303 302 301 303 304 309 313 312 312 310 311 314 325 329 332 332 333 332 333 332 332 331 331 331 332 329 328 334 336 334 332 331 329 327 326 325 323 321 320 317 313 312 311 311 310 310
306 299 299 301 300 297 301 300 298 307 307 298 299 300 306 314 327 331 333 333 332 332 332 331 331 328 329 331 332 328 330 334 334 332 332 329 328 327 326 323 321 320 319 317 315 312 312 310 312
297 299 299 299 296 295 297 295 296 302 298 297 297 298 300 302 304 324 331 333 332 332 331 331 330 329 328 329 330 331 332 332 333 333 332 330 328 327 325 323 321 320 319 319 318 313 313 314 316
298 299 295 296 295 296 296 295 295 303 296 296 296 296 298 299 301 304 324 331 332 333 331 330 330 330 329 329 329 329 330 331 332 331 331 330 328 327 323 322 321 321 320 319 319 317 316 315 319
297 295 293 293 294 295 296 295 297 295 295 295 295 295 296 298 299 301 306 321 330 332 332 331 329 329 330 329 329 328 328 332 332 329 331 330 329 328 322 321 321 320 320 320 321 321 318 319 320
291 291 292 292 294 295 294 293 295 294 294 294 294 294 295 297 299 300 301 307 323 330 332 332 330 329 329 329 329 329 329 331 331 332 332 330 330 326 321 320 320 320 321 322 321 321 321 320 320
290 291 293 293 293 296 295 295 295 295 294 294 294 294 295 296 296 298 300 303 311 328 331 332 331 330 329 328 328 328 328 329 330 332 331 330 330 324 320 319 319 319 321 322 322 322 321 321 321
292 292 292 292 292 295 295 295 294 294 294 294 294 293 295 296 299 301 300 307 309 321 330 331 331 331 330 329 328 327 327 328 328 330 330 330 327 322 319 319 320 320 321 322 322 322 321 322 321
292 293 292 291 294 295 295 294 294 293 293 293 293 294 298 299 300 302 304 308 308 314 324 329 330 331 331 329 328 327 326 325 326 327 329 330 327 321 319 320 320 321 320 321 322 322 321 322 321
295 294 292 293 294 295 294 293 292 292 293 293 293 295 297 296 297 299 301 306 309 306 306 321 327 329 329 330 329 328 327 326 326 325 327 330 328 321 319 321 322 322 322 321 322 322 321 321 321
295 294 294 294 294 292 292 291 291 293 293 293 294 295 296 295 295 296 298 301 302 303 301 309 318 322 325 327 329 329 327 326 324 324 325 326 325 322 320 321 323 323 324 323 322 322 321 321 321
296 295 294 293 295 293 292 293 293 293 292 293 294 293 294 294 294 294 294 297 298 298 298 299 307 312 317 318 327 328 327 326 326 325 324 324 323 323 322 323 323 324 324 324 324 323 321 321 322
295 294 293 294 294 294 292 293 293 291 293 293 294 294 293 294 293 293 293 293 294 296 297 297 298 301 308 311 316 320 328 328 328 327 326 325 325 325 325 324 323 324 324 324 324 324 322 322 322
293 293 291 290 291 290 293 292 292 292 293 292 293 293 294 292 292 292 293 293 293 293 295 295 296 296 301 304 307 312 317 328 329 328 327 326 325 325 325 324 324 325 325 324 324 325 325 323 322
293 290 292 294 292 293 291 293 293 293 293 292 292 292 293 291 291 291 292 292 292 292 292 295 295 294 295 300 304 307 312 318 328 328 327 327 326 325 325 325 324 324 325 325 325 324 324 324 323
294 291 291 290 293 292 293 294 295 293 293 292 290 291 292 291 290 290 291 291 291 292 291 292 293 294 295 296 301 304 307 311 319 329 328 327 326 326 327 326 325 325 325 325 325 325 325 325 325
292 290 291 289 289 291 292 291 291 293 292 291 290 290 290 290 291 290 291 290 291 291 291 291 291 292 295 297 300 301 305 309 314 323 329 327 326 326 326 327 326 326 325 326 326 325 325 325 325
292 291 290 287 287 290 292 292 293 293 293 291 290 290 290 290 291 291 291 291 290 290 290 290 291 292 293 296 300 300 303 307 312 316 322 327 328 326 326 326 326 327 327 326 325 325 325 325 325
292 291 287 286 290 292 294 293 290 292 292 290 290 289 290 291 291 291 291 291 290 290 290 290 291 292 293 296 299 299 302 306 310 314 318 321 325 326 325 324 325 326 326 325 324 323 323 321 317
291 291 290 289 289 291 294 293 292 291 290 289 289 292 291 292 292 291 291 290 290 289 290 290 291 292 294 296 298 299 301 304 309 312 318 317 320 321 320 324 322 323 321 319 320 318 313 311 306
Wind_Speed
15 9 5 4 3 4 2 4 2 3 5 1 1 3 3 3 4 3 3 17 15 31 34 30 27 24 21 19 22 25 22 21 20 18 16 16 15 15 15 14 13 13 12 12 13 14 13 11 10
12 6 4 2 3 1 4 4 4 2 4 7 4 2 1 4 2 2 5 17 20 32 33 31 29 24 21 21 26 26 24 23 21 20 17 16 15 15 14 14 14 13 12 12 13 13 11 10 10
6 5 3 3 2 3 3 3 4 6 9 2 4 1 2 3 2 3 7 19 24 31 33 31 29 25 21 25 26 26 24 25 24 20 18 17 16 16 15 15 13 13 12 12 13 12 11 10 9
5 5 3 3 3 4 4 3 3 8 4 2 3 8 3 4 2 4 8 19 28 32 33 31 29 26 22 27 26 26 25 25 22 20 19 18 17 17 16 16 14 13 13 12 12 11 11 9 8
4 3 2 2 4 4 4 3 3 5 4 5 3 5 4 2 6 6 12 21 30 32 33 31 29 27 24 29 27 27 26 25 22 21 20 19 19 18 17 16 15 14 13 12 11 10 10 9 7
3 2 2 3 4 4 3 4 2 3 2 6 2 5 4 8 4 4 14 20 28 31 33 31 29 27 26 29 28 26 26 25 21 22 21 21 20 20 19 17 15 15 14 12 11 11 10 9 7
5 3 3 2 3 4 4 14 4 5 7 5 3 3 5 7 6 6 13 19 25 29 32 32 31 28 26 27 32 28 26 26 24 23 23 22 20 20 19 17 17 15 13 12 10 11 10 9 8
4 3 3 2 2 1 7 13 6 11 4 6 1 5 12 5 13 10 14 17 23 27 32 33 32 31 29 27 30 31 26 27 25 24 24 23 20 19 19 18 17 15 13 12 11 11 10 9 8
2 3 2 1 4 6 8 9 6 9 6 7 3 3 5 18 7 10 12 17 21 25 32 34 34 32 32 29 29 28 28 26 27 25 24 22 21 20 19 19 18 16 14 13 12 11 10 9 8
5 3 4 3 3 4 11 4 11 6 9 6 13 6 17 20 5 10 11 14 22 20 27 34 35 34 32 32 30 30 27 31 30 28 25 24 22 21 20 18 17 16 16 14 13 11 11 10 10
5 3 4 4 7 8 6 6 7 6 4 12 24 28 27 19 13 15 18 20 20 19 20 28 36 34 29 30 33 33 31 34 32 30 29 26 23 22 21 19 18 17 16 16 15 14 13 12 11
5 4 3 4 6 8 6 7 14 4 7 11 15 21 24 20 18 19 22 23 21 22 23 23 31 33 28 27 29 34 36 35 35 33 32 29 26 25 24 22 21 20 19 18 17 16 14 14 12
4 3 4 4 6 7 4 14 7 3 9 15 20 19 18 19 25 26 25 20 22 25 27 29 28 31 28 30 28 28 32 39 39 38 35 32 29 28 27 25 23 22 20 20 18 18 15 14 13
2 3 5 2 8 7 13 9 1 4 14 23 20 18 17 17 24 25 23 25 24 30 29 29 32 33 30 32 28 31 31 36 40 38 37 34 31 30 28 27 26 24 22 20 18 17 16 15 14
1 2 4 5 5 5 12 7 3 7 17 20 22 18 19 19 24 23 25 26 29 31 30 30 31 34 36 37 34 33 34 35 42 41 39 36 33 31 29 28 28 26 24 21 20 17 17 15 14
5 5 5 4 9 5 6 9 8 14 19 23 19 23 19 21 27 28 29 27 26 30 30 35 31 33 37 37 37 37 37 36 45 45 42 39 36 32 31 30 30 28 25 23 23 20 18 17 16
7 1 2 9 4 5 7 12 9 18 14 19 19 18 19 19 27 32 27 26 27 25 31 32 35 36 38 36 34 35 37 35 41 45 44 42 38 35 33 33 32 29 27 26 25 22 21 19 19
3 5 5 5 6 7 12 15 22 16 13 14 16 15 17 18 20 35 28 24 25 23 26 29 33 37 33 32 30 31 34 37 38 45 46 43 40 37 35 35 33 30 30 27 27 25 23 22 19
3 3 4 4 3 13 7 18 21 15 9 12 13 12 14 17 23 31 31 19 33 34 19 24 26 33 32 30 29 30 35 34 34 40 44 44 42 39 39 38 35 33 33 30 29 26 24 22 19
1 1 3 9 2 7 7 20 14 7 6 6 10 9 11 15 18 25 31 23 15 32 42 26 20 23 26 31 29 30 28 29 30 33 40 45 44 43 42 40 37 34 32 32 30 28 21 21 20
2 3 5 5 12 5 10 7 6 6 4 8 9 7 10 8 12 15 23 25 26 28 36 34 27 16 18 23 33 31 27 25 24 30 39 44 44 43 43 41 38 36 35 34 33 31 28 18 22
4 3 6 9 7 3 7 5 6 6 10 5 10 11 11 8 10 11 15 19 20 20 27 34 32 26 20 16 20 28 26 23 29 30 27 28 40 44 43 43 40 39 38 37 35 32 33 26 18
6 8 6 2 2 3 4 1 9 4 5 8 12 14 12 8 8 13 15 16 19 20 22 27 28 30 29 25 20 25 27 27 27 28 29 32 34 41 45 44 43 41 38 36 36 34 34 32 24
10 3 1 3 2 3 3 2 6 4 5 6 8 14 10 9 12 16 26 26 19 19 20 20 23 29 27 28 30 23 31 29 24 24 27 31 33 36 41 43 45 44 40 38 37 36 35 35 33
6 5 4 7 6 4 5 5 11 10 11 6 7 12 10 9 11 11 15 24 29 23 23 21 19 26 26 29 26 27 26 29 30 27 28 28 30 32 38 44 42 42 42 38 37 36 37 36 34
4 2 4 4 3 6 6 7 7 6 10 8 6 7 8 12 11 13 16 22 26 26 22 24 23 25 22 24 30 26 24 30 29 31 29 30 32 36 41 42 43 44 43 40 38 36 37 37 35
2 4 2 3 2 2 4 6 11 8 8 6 8 6 9 13 15 14 19 23 27 27 27 22 25 28 25 17 22 24 20 22 31 31 30 33 32 33 37 42 42 43 41 40 38 35 32 36 34
1 5 2 3 2 5 6 7 7 9 10 10 10 11 13 14 15 15 17 23 27 29 30 28 22 26 28 23 17 20 22 15 25 34 18 31 35 34 32 35 39 39 38 38 35 32 35 34 31
1 1 5 3 3 3 4 7 9 14 12 9 12 14 15 16 17 17 19 25 27 29 31 28 26 24 27 25 19 19 19 17 21 23 26 17 30 28 21 31 38 37 38 36 36 36 36 32 28
2 5 5 4 4 4 2 11 5 8 6 5 11 19 18 17 17 16 20 24 24 26 27 26 27 27 24 25 21 19 17 17 15 20 20 21 23 19 22 23 24 32 30 30 36 35 33 31 29
Wind_Direction
356 359 358 32 50 53 283 261 281 307 343 300 239 163 213 169 180 240 314 180 174 170 171 173 177 178 175 171 166 167 170 162 158 154 147 140 141 139 143 142 139 139 135 135 135 134 131 123 113
353 7 40 76 87 52 280 274 239 254 286 313 275 261 267 274 235 283 143 181 174 173 173 174 178 181 178 171 165 170 172 169 160 156 154 149 148 147 148 147 146 145 145 142 140 142 140 129 120
358 5 82 76 90 183 238 255 296 332 312 279 331 262 282 256 279 242 201 179 174 176 178 178 180 182 180 173 171 174 177 167 161 157 158 156 155 153 154 154 154 153 152 150 149 149 145 139 129
3 18 44 103 222 243 223 310 297 325 322 3 337 295 287 248 227 271 204 180 175 180 182 181 181 183 181 177 173 175 175 169 162 165 160 161 161 162 161 162 163 160 158 157 154 155 156 153 139
44 66 74 107 225 240 232 244 245 289 267 281 317 277 257 248 263 259 195 182 180 181 184 184 186 184 183 182 178 177 175 172 170 166 166 169 168 167 168 168 170 170 169 166 165 162 165 161 151
48 86 82 236 244 259 288 267 256 244 275 310 309 308 271 357 323 213 189 188 185 185 185 186 189 190 187 187 184 183 180 181 178 175 173 178 177 173 171 171 175 174 174 174 172 168 167 168 172
120 104 202 241 255 316 10 327 339 335 323 355 309 286 295 7 318 233 200 199 194 191 190 190 189 194 195 193 191 189 189 186 184 183 179 182 184 179 178 181 182 181 185 183 181 178 176 178 184
102 92 160 232 249 262 4 335 350 15 299 309 51 346 326 345 318 233 206 213 206 200 195 196 194 194 198 197 199 196 192 191 189 191 188 188 188 186 187 185 192 190 191 192 191 189 189 191 199
129 83 181 12 15 314 355 349 326 308 322 318 281 249 289 329 296 216 207 214 216 209 203 200 199 199 198 201 200 201 203 200 196 197 196 191 191 192 195 198 200 203 202 201 202 201 202 206 211
56 103 35 59 323 314 317 301 316 337 332 302 324 336 330 323 259 227 217 213 220 223 210 204 203 204 204 203 204 201 204 200 198 197 197 198 198 198 201 202 207 213 215 208 210 213 216 219 220
2 74 328 8 347 324 299 323 342 319 318 339 341 329 324 306 275 244 228 226 225 230 223 217 206 207 209 209 205 202 201 200 198 200 202 201 202 202 204 206 209 212 215 216 216 221 225 228 228
96 13 10 353 330 351 2 355 325 293 341 335 331 326 333 334 299 254 243 226 222 218 221 222 223 209 206 207 209 206 203 204 202 206 206 204 204 205 208 211 214 215 217 218 223 228 232 232 231
71 328 338 323 352 5 345 330 261 257 311 320 327 329 329 327 326 312 266 241 225 222 221 213 220 220 209 208 207 206 205 206 207 207 205 209 210 211 214 216 217 220 221 225 230 230 237 236 235
224 226 315 355 8 39 352 296 337 256 342 333 329 321 314 311 309 312 306 256 231 225 223 217 215 218 214 213 209 207 208 210 210 211 211 211 215 217 219 220 220 223 224 227 231 237 243 242 244
340 35 20 5 12 42 325 317 308 308 327 320 316 315 308 303 302 303 298 295 266 239 221 220 222 213 215 217 215 212 210 210 212 215 215 215 217 219 223 223 223 226 226 228 232 238 243 244 247
31 51 10 5 357 14 21 272 280 313 324 316 314 315 316 310 305 300 297 295 285 252 228 217 218 222 219 216 216 216 216 211 215 216 216 217 220 223 223 224 226 228 229 230 232 236 239 243 246
6 314 320 316 23 3 23 280 301 311 313 309 316 312 313 313 311 303 297 304 300 265 243 225 213 218 222 220 217 217 219 217 217 218 220 219 220 223 225 225 227 228 231 235 236 238 239 242 246
317 350 302 248 324 345 307 282 311 311 319 309 308 316 326 329 329 326 307 338 325 298 255 232 220 217 224 222 221 218 220 220 220 221 222 224 223 222 224 227 228 227 228 233 234 237 240 243 249
183 198 272 260 298 340 306 301 301 310 319 323 316 323 353 356 342 351 342 340 1 351 310 246 225 220 219 220 214 217 218 219 218 219 224 226 229 225 222 225 229 229 229 231 229 232 235 237 240
168 274 296 295 270 344 331 301 295 304 298 276 306 316 346 359 356 357 3 2 335 353 351 318 259 246 229 227 223 219 225 225 220 219 222 230 230 229 225 223 226 229 231 232 233 230 228 234 232
54 69 340 287 324 6 330 297 314 301 317 320 329 317 330 355 349 350 0 14 18 0 348 340 338 296 265 249 237 233 227 218 217 219 223 224 227 227 228 228 227 227 229 232 232 231 225 220 229
3 158 305 304 9 314 18 293 303 290 314 315 319 322 320 329 341 339 353 356 9 11 351 351 335 333 317 320 253 225 218 206 216 223 227 222 224 226 229 230 228 229 230 230 233 232 230 219 220
261 305 289 256 115 36 355 302 271 294 308 317 324 316 313 320 328 330 328 333 333 346 5 344 341 339 328 318 311 310 226 225 222 213 210 216 224 228 228 227 228 228 231 232 232 232 229 229 221
273 330 94 86 125 36 186 106 276 271 246 292 314 312 305 318 327 332 330 331 330 331 330 338 334 333 329 323 304 306 317 230 223 212 206 207 212 221 225 226 226 230 231 231 234 236 237 232 228
354 9 352 2 8 249 173 328 252 276 278 232 292 296 297 300 310 315 320 321 323 327 326 318 321 322 323 320 317 304 286 300 226 217 209 206 205 209 222 226 222 224 229 232 234 236 235 233 225
356 51 127 217 284 287 310 224 254 236 282 281 268 273 281 295 300 299 304 306 309 313 316 315 310 307 313 318 317 314 301 297 299 220 215 210 209 213 223 225 225 227 231 232 233 230 233 232 232
326 48 194 118 99 321 259 278 284 287 285 280 291 296 291 304 308 299 303 300 302 308 309 310 306 303 301 308 306 309 308 288 292 283 224 213 214 216 219 227 223 227 231 235 231 224 223 228 230
23 167 63 26 11 299 281 286 246 284 283 302 307 305 304 303 302 302 300 299 299 301 305 310 310 303 301 302 299 302 301 287 283 276 269 220 219 218 219 223 226 230 234 235 231 220 220 225 220
141 342 45 115 150 211 294 253 209 247 264 283 302 299 298 300 298 301 302 298 295 298 306 309 317 321 304 301 300 302 303 297 280 278 269 259 224 218 232 249 226 229 229 227 223 215 213 202 193
290 203 165 130 247 234 260 267 227 229 259 278 280 303 301 299 300 300 297 297 293 296 305 306 313 324 314 304 301 304 308 305 291 289 268 251 250 255 254 247 241 218 216 211 207 197 189 178 167